Content
SEND FEEDBACK

Daily
Averages
Monthly
Summary
Philippines

ANGELES CITY, PHILIPPINES


Home > Asia > Philippines
Elevation: 490 feet     Latitude: 15 11N     Longitude: 120 33E

WEATHER
 
SELECT A DAY
Number of Records: 92,182;   Date Range: 2/13/97 - 4/16/14
 
SHARE

PRINT THIS DATA

[ ← Previous Day ]
WEATHER ALMANAC - APRIL 8, 2013
[ Next Day → ]
[ °C ]   °F
Weather ElementAverageHighLow
Temperature85.3 °F95 °F (3:00 pm)75.2 °F (6:00 am)
Dewpoint70.8 °F73.4 °F (1:00 am)68 °F (12:00 pm)
Humidity63.9 %89 % (2:00 am)41 % (3:00 pm)
Barometer28.46 in29.89 in (9:00 pm) (7:00 pm)
Wind Speed5.7 mph8.1 mph (10:00 am)
Wind Gust21.9 mph (11:00 pm)
Weather ElementAverage
Visibility6.2 mi
Wind DirectionESE (115 °)

Weather ElementTotal
Precipitation---
Cooling Degree Days20.1 (Base 65)
Growing Degree Days35.1 (Base 50)
Averaged from 22 records on April 8, 2013
WEATHER CONDITIONS BREAKOUT
WIND DIRECTION BREAKOUT
WEATHER BY HOUR - APRIL 8, 2013
[ °C ]   °F
Local TimeTemperatureDewpointHumidityBarometerVisibilityWind DirectionWind SpeedGust SpeedPrecipitationEventsConditions
1:00 AM78.8 °F73.4 °F83 %29.83 inNorthMostly Cloudy
2:00 AM77.0 °F73.4 °F89 %29.83 inNorthMostly Cloudy
3:00 AM77.0 °F71.6 °F83 %29.80 in6.2 miNorthMostly Cloudy
4:00 AM77.0 °F71.6 °F83 %29.80 in6.2 miWest (280°)5.8 mphMostly Cloudy
5:00 AM77.0 °F71.6 °F83 %29.80 in6.2 miWest (280°)4.6 mphMostly Cloudy
6:00 AM75.2 °F71.6 °F89 %29.81 in6.2 miWest (280°)4.6 mphMostly Cloudy
7:00 AM78.8 °F73.4 °F83 %29.85 in6.2 miWNW (300°)4.6 mphMostly Cloudy
8:00 AM84.2 °F71.6 °F66 %29.88 in6.2 miNNE (30°)6.9 mphMostly Cloudy
9:00 AM86.0 °F71.6 °F62 %6.2 miNNE (30°)6.9 mphMostly Cloudy
10:00 AM89.6 °F71.6 °F55 %29.87 in6.2 miNNE (30°)8.1 mphMostly Cloudy
12:00 PM93.2 °F68.0 °F44 %29.86 in6.2 miEast (80°)5.8 mphMostly Cloudy
1:00 PM93.2 °F68.0 °F44 %29.83 in6.2 miSouth (190°)4.6 mphMostly Cloudy
2:00 PM93.2 °F68.0 °F44 %29.77 in6.2 miESE (110°)5.8 mphMostly Cloudy
3:00 PM95.0 °F68.0 °F41 %29.74 in6.2 miVariable5.8 mphMostly Cloudy
4:00 PM95.0 °F69.8 °F44 %29.74 in6.2 miEast (80°)6.9 mphMostly Cloudy
5:00 PM93.2 °F69.8 °F46 %29.74 in6.2 miESE (120°)6.9 mphMostly Cloudy
6:00 PM91.4 °F69.8 °F49 %29.74 in6.2 miESE (120°)5.8 mphMostly Cloudy
7:00 PM87.8 °F73.4 °F62 %29.80 in6.2 miSE (140°)6.9 mphMostly Cloudy
8:00 PM86.0 °F71.6 °F62 %29.83 in6.2 miESE (120°)5.8 mphMostly Cloudy
9:00 PM84.2 °F69.8 °F62 %29.89 in6.2 miSE (130°)4.6 mphMostly Cloudy
10:00 PM82.4 °F69.8 °F66 %29.89 in6.2 miVariable1.2 mph20.7 mphMostly Cloudy
11:00 PM82.4 °F69.8 °F66 %29.89 in6.2 miSSW (210°)5.8 mph21.9 mphMostly Cloudy
Hourly data recorded from RPLC, located 0.24 miles away from Angeles City, Philippines







STORIES FROM OUR PARTNERS